Home > Weather > Schwabach > Past weeks

Flag for Germany Past Weather in Schwabach, Bavaria, Germany — Yesterday and Last 2 Weeks

Now
66 °F

Broken clouds.


Feels Like: 66 °F
Forecast: 56 / 64 °F
Wind: 7 mph from Southeast

Location: Nuernberg

Current Time: May 29, 2016 at 11:47:26 AM

Latest Report: May 29, 2016 at 11:20 AM


Visibility: N/A

Pressure: 29.74 "Hg

Humidity: 83%

Dew Point: 61 °F

Location of SchwabachLocation

Past Weather in Schwabach — Graph

°F

Schwabach Temperature Yesterday

Maximum temperature yesterday: 73 °F (at 2:50 PM)
Minimum temperature yesterday: 54 °F (at 3:50 AM)
Average temperature yesterday: 64 °F

High & Low Weather Summary for the Past Weeks

 TemperatureHumidityPressure
High84 °F (May 22, 2:20 PM)100% (May 24, 11:20 AM)30.15 "Hg (May 24, 11:20 AM)
Low41 °F (May 15, 5:20 AM)23% (May 22, 5:20 PM)29.71 "Hg (May 14, 10:20 AM)
Average56 °F72%29.96 "Hg
* Reported May 14 10:20 AM — May 29 10:20 AM, Schwabach, Weather by CustomWeather, © 2016

Note: Actual official high and low records may vary slightly from our data, if they occured in-between our weather recording intervals... More about our weather records

Advertising

Schwabach Weather History for the Previous 24 Hours

Scroll right to see more
 ConditionsComfort  
Time TempWeatherWind HumidityBarometerVisibility
10:20 AM
Sun, May 29
61 °FBroken clouds.8 mph94%29.74 "Hg6 mi
9:50 AM59 °FSprinkles. Partly sunny.6 mph94%29.71 "Hg6 mi
9:20 AM59 °FSprinkles. Broken clouds.6 mph94%29.74 "HgN/A
8:50 AM59 °FSprinkles. Broken clouds.3 mph94%29.77 "HgN/A
8:20 AM61 °FBroken clouds.6 mph88%29.77 "HgN/A
7:50 AM59 °FPartly sunny.5 mph94%29.77 "HgN/A
7:20 AM59 °FBroken clouds.2 mph94%29.77 "HgN/A
6:50 AM57 °FBroken clouds.6 mph100%29.74 "HgN/A
6:20 AM55 °FSprinkles. Broken clouds.2 mph100%29.74 "HgN/A
5:50 AM55 °FFog.1 mph100%29.74 "HgN/A
5:20 AM55 °FFog.1 mph94%29.74 "HgN/A
4:50 AM55 °FFog.1 mph94%29.74 "Hg4 mi
4:20 AM55 °FFog.1 mph94%29.77 "Hg4 mi
3:50 AM55 °FFog.1 mph100%29.77 "Hg4 mi
3:20 AM57 °FFog.1 mph100%29.77 "Hg4 mi
2:50 AM57 °FFog.2 mph100%29.77 "Hg4 mi
2:20 AM59 °FClear.1 mph94%29.77 "Hg10 mi
1:50 AM61 °FClear.2 mph88%29.80 "Hg10 mi
1:20 AM61 °FPassing clouds.3 mph88%29.80 "HgN/A
12:50 AM61 °FPassing clouds.3 mph88%29.80 "HgN/A
12:20 AM61 °FClear.1 mph94%29.80 "Hg10 mi
11:50 PM
Sat, May 28
59 °FClear.1 mph94%29.80 "Hg10 mi
11:20 PM61 °FClear.1 mph88%29.80 "Hg10 mi
10:50 PM63 °FClear.1 mph83%29.83 "Hg10 mi
10:20 PM63 °FClear.5 mph83%29.83 "Hg10 mi
9:50 PM64 °FScattered clouds.7 mph78%29.83 "HgN/A
9:20 PM66 °FPartly sunny.7 mph78%29.83 "HgN/A
8:50 PM68 °FBroken clouds.7 mph78%29.83 "HgN/A
8:20 PM68 °FBroken clouds.3 mph83%29.83 "HgN/A
7:50 PM68 °FPartly sunny.3 mph83%29.83 "HgN/A
7:20 PM68 °FPartly sunny.5 mph78%29.83 "HgN/A
6:50 PM70 °FSprinkles. Partly sunny.3 mph69%29.86 "HgN/A
6:20 PM72 °FSunny.5 mph65%29.86 "Hg10 mi
5:50 PM72 °FBroken clouds.6 mph61%29.86 "HgN/A
5:20 PM72 °FThundershowers. Broken clouds.5 mph57%29.86 "HgN/A
4:50 PM70 °FBroken clouds.6 mph60%29.86 "HgN/A
4:20 PM72 °FThundershowers. Broken clouds.5 mph65%29.86 "HgN/A
3:50 PM72 °FBroken clouds.7 mph69%29.89 "HgN/A
3:20 PM72 °FPartly sunny.5 mph69%29.89 "HgN/A
2:50 PM73 °FScattered clouds.5 mph69%29.89 "HgN/A
2:20 PM70 °FBroken clouds.6 mph73%29.92 "HgN/A
1:50 PM70 °FSprinkles. Partly sunny.8 mph73%29.92 "HgN/A
1:20 PM70 °FSprinkles. Partly sunny.5 mph69%29.92 "HgN/A
12:50 PM70 °FPartly sunny.3 mph73%29.92 "HgN/A
12:20 PM70 °FPartly sunny.3 mph69%29.92 "HgN/A
11:50 AM68 °FPartly sunny.6 mph73%29.92 "HgN/A
11:20 AM68 °FBroken clouds.5 mph73%29.92 "HgN/A
Weather by CustomWeather, © 2016

See weather overviewHow to use our weather pages